Tracking 30923 objects as of 1-Jul-2025
HD Live streaming from Space Station
objects crossing your sky now

THOR ABLESTAR DEB

Track THOR ABLESTAR DEB now!
10-day predictions


NORAD ID: 350
Int'l Code: 1961-015DQ
Perigee: 738.6 km
Apogee: 910.6 km
Inclination: 66.9 °
Period: 101.2 minutes
Semi major axis: 7195 km
RCS: 0.1129 m2 (medium)
Launch date: June 29, 1961
Source: United States (US)
Launch site: AIR FORCE EASTERN TEST RANGE (AFETR)

Note: This is SATELLITE DEBRIS
Your satellite tracking list
OPS 7898 (P/L 2)
Track 1 satellite(s)




NASA's NSSDC Master Catalog

Two Line Element Set (TLE):
1   350U 61015DQ  25181.86077075  .00000136  00000-0  91218-4 0  9993
2   350  66.9127  50.2861 0119536  53.2507 307.9493 14.22340016313522
Source of the keplerian elements: AFSPC